Miscellaneous Local Product
Issued by NWS Hastings, NE

Home | Current Version | Previous Version | Graphics & Text | Print | Product List | Glossary On
Versions: 1 2 3 4 5 6 7 8 9 10 11 12 13 14 15 16 17 18 19 20 21 22 23 24 25 26 27 28 29 30 31 32 33 34 35 36 37 38 39 40 41 42 43 44 45 46 47 48 49 50
200
AXUS43 KGID 240702
MISGRI

GID CWA HOURLY WEATHER ROUNDUP
NATIONAL WEATHER SERVICE HASTINGS NE
100 AM CST TUE JAN 24 2017

NOTE: "FAIR" INDICATES FEW OR NO CLOUDS BELOW 12,000 FEET WITH NO
SIGNIFICANT WEATHER AND/OR OBSTRUCTIONS TO VISIBILITY.

...SOUTH CENTRAL NEBRASKA...

CITY           SKY/WX    TMP DP  RH WIND       PRES   REMARKS
GRAND ISLAND   CLOUDY    32  32 100 E10       29.70F FOG     WCI  24
HASTINGS       CLOUDY    32  31  96 E12       29.68S FOG     WCI  23
KEARNEY        CLOUDY    32  30  93 E13       29.66F VSB 1/2 WCI  22
ORD            FOG       31  29  92 E12       29.69F VSB 1/2 WCI  22
YORK           PTCLDY    32  32 100 E13       29.72F FOG     WCI  22
AURORA         CLOUDY    32  32 100 E14       29.70F FOG     WCI  22
LEXINGTON      CLOUDY    32  32  98 E13       29.62F FOG     WCI  23
HOLDREGE       CLOUDY    32  31  96 E15       29.61F FOG     WCI  22
HEBRON         CLEAR     31  31 100 E7        29.70S FOG     WCI  24

...NEBRASKA PANHANDLE...

CITY           SKY/WX    TMP DP  RH WIND       PRES   REMARKS
CHADRON        FOG       24  23  96 NE12      29.67S VSB 3/4 WCI  13
ALLIANCE       CLOUDY    26  25  96 NE17      29.57F FOG     WCI  13
SCOTTSBLUFF    SNOW      28  25  88 N5        29.62R VSB 1/2 WCI  23
SIDNEY         CLOUDY    33  29  85 E8        29.52S WCI  26

...WESTERN AND NORTH CENTRAL NEBRASKA...

CITY           SKY/WX    TMP DP  RH WIND       PRES   REMARKS
VALENTINE      FOG       30  29  96 SE7       29.67S VSB 1/2 WCI  23
AINSWORTH      FOG       32  32 100 SE9       29.67F VSB 3/4 WCI  24
ONEILL         CLOUDY    32  32  99 SE9       29.72S FOG     WCI  24
BROKEN BOW     FOG       32  31  96 E12G23    29.65F VSB 1/4 WCI  23
IMPERIAL       PTCLDY    33  29  85 E10       29.51F WCI  25
NORTH PLATTE   CLOUDY    33  31  92 E14       29.60F WCI  23
MCCOOK         PTCLDY    33  31  92 E12       29.54F WCI  24

...EASTERN NEBRASKA...

CITY           SKY/WX    TMP DP  RH WIND       PRES   REMARKS
NORFOLK        CLOUDY    29  27  92 SE9       29.75F FOG     WCI  20
SO SIOUX CITY  CLOUDY    33  30  88 SE9       29.81F WCI  25
TEKAMAH        CLOUDY    31  28  89 SE9       29.82F WCI  23
COLUMBUS       CLOUDY    30  27  86 E10       29.77S WCI  21
ALBION         CLOUDY    32  30  93 SE10      29.73F FOG     WCI  24
OMAHA EPPLEY   CLOUDY    31  26  82 E7        29.82F WCI  24
OFFUTT AFB     CLOUDY    29  29 100 E8        29.80F WCI  22
MILLARD        CLOUDY    32  31  94 E6        29.81S FOG     WCI  26
LINCOLN        CLOUDY    30  28  92 E7        29.78F WCI  23
NEBRASKA CITY  CLEAR     29  29 100 E6        29.79S FOG     WCI  23
BEATRICE       CLEAR     32  31  95 E8        29.74F FOG     WCI  25
FALLS CITY     CLEAR     30  28  92 E9        29.78F WCI  22

...NORTHERN KANSAS...

CITY           SKY/WX    TMP DP  RH WIND       PRES   REMARKS
GOODLAND       CLOUDY    34  30  85 S13       29.44F WCI  25
HILL CITY      CLEAR     33  31  92 E9        29.54F WCI  25
NORTON         MOSUNNY   36  28  75 E9        29.54S WCI  29
PHILLIPSBURG   PTCLDY    34  34 100 E13       29.58F WCI  25
SMITH CENTER   CLEAR     34  30  86 E17       29.59F WCI  23
HAYS           CLOUDY    36  31  82 E9        29.53F WCI  29
RUSSELL        CLOUDY    39  31  72 E14       29.53F WCI  31
CONCORDIA      PTCLDY    34  33  96 E14       29.65F WCI  25
SALINA           N/A    N/A N/A N/A MISG        N/A
TOPEKA         CLOUDY    32  28  85 E7        29.77F FOG     WCI  26



USA.gov is the U.S. government's official web portal to all federal, state and local government web resources and services.